    Orbital elements:
    2018 AG4                                                 Earth MOID = 0.0044 AU
    Epoch 2017 Sept. 4.0 TT = JDT 2458000.5                 MPC
    M 234.08614              (2000.0)            P               Q
    n   0.70032428     Peri.  235.83349     -0.97723186     -0.13091454
    a   1.2558466      Node   296.13536     +0.19522991     -0.86297565
    e   0.2901499      Incl.   10.71868     -0.08308528     -0.48799017
    P   1.41           H   26.0           G   0.15           U   6
    Residuals in seconds of arc
    180114 703  0.3-  0.2+    180114 J04  0.0   0.3+    180115 W34  0.1+  0.7+
    180114 703  0.4+  0.3-    180114 J04  0.1+  0.3+    180115 W34  0.0   0.1+
    180114 703  0.2-  0.1+    180114 K87  0.3+  0.4-    180115 H06  0.2+  0.2-
    180114 I52  0.1+  0.1+    180114 K87  0.1-  0.2+    180115 H06  0.3+  0.5-
    180114 I52  0.1-  0.2-    180114 K87  0.4+  0.0     180115 I52  0.1+  0.1-
    180114 I52  0.0   0.0     180114 K87  0.1+  0.1-    180115 I52  0.1+  0.1+
    180114 I52  0.0   0.2+    180114 K87  0.1-  0.3+    180115 I52  0.1+  0.1-
    180114 H01  0.0   0.0     180114 K87  0.6+  0.4-    180115 I52  0.3-  0.2-
    180114 H01  0.0   0.0     180114 K87  0.1-  0.3-    180115 711  0.2-  0.3+
    180114 H01  0.0   0.0     180114 K87  0.1+  0.1+    180115 711  0.2-  0.1-
    180114 I52  0.1-  0.0     180114 K87  0.3+  0.3-    180115 711  0.1-  0.2+
    180114 I52  0.1+  0.0     180114 K87  0.1+  0.2-    180115 711  0.4-  0.1+
    180114 I52  0.1-  0.3-    180114 K87  0.1+  0.1-    180115 711  0.0   0.1+
    180114 I52  0.0   0.2+    180114 K87  0.5+  0.1-    180115 711  0.4-  0.3+
    180114 H01  0.1-  0.0     180114 K87  0.4+  0.1+    180115 711  0.1-  0.3+
    180114 A17  0.1+  0.1+    180114 K87  0.0   0.4+    180115 711  0.3-  0.4+
    180114 A17  0.3-  0.1+    180114 K87  0.2-  0.1+    180115 711  0.2-  0.3+
    180114 A17  0.1-  0.1-    180115 K88  0.3-  0.1+    180115 718  0.3+  0.3+
    180114 L04  0.1-  0.4-    180115 K88  0.1-  0.6+    180115 718  0.3-  1.0-
    180114 A17  0.1-  0.2-    180115 K88  0.0   0.6+    180115 718  0.3-  0.5+
    180114 L04  0.3-  0.2-    180115 K88  0.0   0.1-    180115 718  0.8+  0.4-
    180114 L04  0.1+  0.1+    180115 W34  0.7-  1.0-    180115 718  0.2+  0.4-
    180114 J04  0.1+  0.2+    180115 W34  0.1+  0.4-
    
    Ephemeris:
    2018 AG4                 a,e,i = 1.26, 0.29, 11                  q = 0.8915
    Date    TT    R. A. (2000) Decl.     Delta      r     Elong.  Phase     V
    2017 12 16    07 22 52.3 +58 27 32   0.1794  1.1273   139.8    34.3    24.0
    ...
    2017 12 31    07 27 04.4 +60 04 36   0.09357 1.0588   142.1    34.8    22.4
    ...
    2018 01 08    07 22 30.8 +59 09 54   0.05030 1.0240   143.1    35.2    21.0
    ...
    2018 01 14    07 05 33.4 +52 48 20   0.01860 0.9994   147.8    31.6    18.7
    2018 01 15    06 57 27.1 +48 36 57   0.01344 0.9954   150.9    28.7    17.9
    2018 01 16    06 43 36.2 +39 14 25   0.0084600.9915   156.9    22.9    16.7
    ...
    2018 01 22    20 11 56.0 -70 03 14   0.02433 0.9688    50.3   128.6    23.4
    ...
    2018 01 30    19 44 39.2 -64 41 50   0.06650 0.9420    48.1   128.8    25.6
    ...
    2018 02 14    19 48 07.5 -60 36 24   0.1470  0.9051    52.3   120.3    26.5
    
    A. U. Tomatic                (C) Copyright 2018 MPC           M.P.E.C. 2018-A89
    

    Read MPEC 2018-A88 Read MPEC 2018-A90


    MPEC number:

    Enter an MPEC number in one of the following forms:

    • 1997-B01 (the full form)
    • J97B01 (the packed version of the full form)
    • B01 (the abbreviated form)